TimeCST,TemperatureF,Dew PointF,Humidity,Sea Level PressureIn,VisibilityMPH,Wind Direction,Wind SpeedMPH,Gust SpeedMPH,PrecipitationIn,Events,Conditions,WindDirDegrees,DateUTC
12:38 AM,8.6,1.4,73,29.66,1.2,North,-9999.0,-,0.01,Snow,Light Snow,0,2013-01-12 06:38:00
12:47 AM,8.6,1.4,73,29.66,2.0,North,-9999.0,-,0.01,Snow,Light Snow,0,2013-01-12 06:47:00
12:48 AM,8.1,1.9,76,29.73,2.0,North,-9999.0,-,0.01,Snow,Light Snow,0,2013-01-12 06:48:00
12:57 AM,8.6,3.2,79,29.67,3.0,North,-9999.0,-,0.01,Snow,Light Snow,0,2013-01-12 06:57:00
1:05 AM,8.6,1.4,73,29.67,2.0,North,-9999.0,-,0.01,Snow,Light Snow,0,2013-01-12 07:05:00
1:27 AM,8.6,1.4,73,29.69,1.8,North,-9999.0,-,0.01,Snow,Light Snow,0,2013-01-12 07:27:00
1:38 AM,6.8,1.4,79,29.69,2.0,North,-9999.0,-,0.01,Snow,Light Snow,0,2013-01-12 07:38:00
1:53 AM,7.0,1.9,80,29.78,2.5,North,-9999.0,-,0.01,Snow,Light Snow,0,2013-01-12 07:53:00
2:00 AM,6.8,1.4,79,29.71,1.2,North,-9999.0,-,0.00,Snow,Light Snow,0,2013-01-12 08:00:00
2:14 AM,6.8,1.4,79,29.71,1.5,North,-9999.0,-,0.00,Snow,Light Snow,0,2013-01-12 08:14:00
2:40 AM,6.8,1.4,79,29.73,2.5,North,-9999.0,-,0.00,Snow,Light Snow,0,2013-01-12 08:40:00
2:53 AM,7.0,1.9,80,29.81,1.8,North,-9999.0,-,0.00,Snow,Light Snow,0,2013-01-12 08:53:00
3:11 AM,6.8,-0.4,72,29.75,2.0,North,-9999.0,-,0.00,Snow,Light Snow,0,2013-01-12 09:11:00
3:34 AM,6.8,-0.4,72,29.76,3.0,North,-9999.0,-,0.00,Snow,Light Snow,0,2013-01-12 09:34:00
3:53 AM,5.0,-0.9,76,29.85,4.0,North,-9999.0,-,0.00,Snow,Light Snow,0,2013-01-12 09:53:00
4:30 AM,5.0,-0.4,78,29.79,5.0,NNW,20.7,31.1,N/A,Snow,Light Snow,330,2013-01-12 10:30:00
4:53 AM,5.0,-0.9,76,29.88,8.0,North,-9999.0,-,0.00,Snow,Light Snow,0,2013-01-12 10:53:00
5:29 AM,5.0,-0.4,78,29.82,4.0,North,-9999.0,-,0.00,Snow,Light Snow,0,2013-01-12 11:29:00
5:42 AM,5.0,-0.4,78,29.83,4.0,North,-9999.0,-,0.00,Snow,Light Snow,0,2013-01-12 11:42:00
5:53 AM,3.9,-2.0,76,29.93,4.0,North,-9999.0,-,0.00,Snow,Light Snow,0,2013-01-12 11:53:00
5:57 AM,3.2,-0.4,85,29.84,4.0,NW,20.7,36.8,N/A,Snow,Light Snow,320,2013-01-12 11:57:00
6:53 AM,3.9,-2.9,73,29.95,10.0,North,-9999.0,-,0.00,,Mostly Cloudy,0,2013-01-12 12:53:00
7:01 AM,3.2,-2.2,78,29.87,10.0,North,-9999.0,-,N/A,,Mostly Cloudy,0,2013-01-12 13:01:00
7:31 AM,3.2,-2.2,78,29.88,10.0,North,-9999.0,-,N/A,,Scattered Clouds,0,2013-01-12 13:31:00
7:53 AM,3.0,-2.9,76,29.98,10.0,North,-9999.0,-,N/A,,Partly Cloudy,0,2013-01-12 13:53:00
8:53 AM,5.0,-2.0,73,30.01,10.0,North,-9999.0,-,N/A,,Clear,0,2013-01-12 14:53:00
9:53 AM,5.0,-2.9,70,30.05,10.0,North,-9999.0,-,N/A,,Scattered Clouds,0,2013-01-12 15:53:00
10:03 AM,5.0,-4.0,66,29.97,10.0,North,-9999.0,-,N/A,,Mostly Cloudy,0,2013-01-12 16:03:00
10:53 AM,6.1,-2.9,67,30.08,7.0,NW,20.7,-,0.00,Snow,Light Snow,320,2013-01-12 16:53:00
11:04 AM,6.8,-2.2,67,30.00,4.0,NNW,21.9,-,0.00,Snow,Light Snow,330,2013-01-12 17:04:00
11:40 AM,6.8,-2.2,67,30.01,2.0,North,-9999.0,-,0.00,Snow,Light Snow,0,2013-01-12 17:40:00
11:53 AM,6.1,-0.9,73,30.11,1.2,NW,18.4,-,0.00,Snow,Light Snow,320,2013-01-12 17:53:00
12:40 PM,6.8,-0.4,72,30.02,0.8,NW,19.6,-,0.00,Snow,Light Snow,320,2013-01-12 18:40:00
12:53 PM,6.1,-0.0,76,30.12,0.8,NNW,17.3,-,0.00,Snow,Light Snow,330,2013-01-12 18:53:00
1:19 PM,6.8,-0.4,72,30.04,1.0,NNW,20.7,25.3,0.01,Snow,Light Snow,330,2013-01-12 19:19:00
1:53 PM,6.1,-0.9,73,30.13,1.0,NNW,20.7,26.5,0.01,Snow,Light Snow,330,2013-01-12 19:53:00
2:39 PM,6.8,-0.4,72,30.06,1.5,NNW,21.9,26.5,0.00,Snow,Light Snow,330,2013-01-12 20:39:00
2:53 PM,6.1,-0.0,76,30.15,1.5,NNW,20.7,-,0.00,Snow,Light Snow,330,2013-01-12 20:53:00
3:22 PM,6.8,-0.4,72,30.06,2.5,NNW,19.6,-,0.00,Snow,Light Snow,340,2013-01-12 21:22:00
3:33 PM,6.8,-0.4,72,30.07,3.0,NNW,20.7,-,0.00,Snow,Light Snow,330,2013-01-12 21:33:00
3:53 PM,6.1,-0.0,76,30.17,4.0,NNW,17.3,-,0.00,Snow,Light Snow,330,2013-01-12 21:53:00
4:31 PM,6.8,-0.4,72,30.09,2.5,NNW,20.7,-,0.00,Snow,Light Snow,330,2013-01-12 22:31:00
4:39 PM,6.8,-0.4,72,30.09,4.0,NNW,18.4,-,0.00,Snow,Light Snow,330,2013-01-12 22:39:00
4:53 PM,5.0,-2.0,73,30.19,3.0,NNW,19.6,-,0.00,Snow,Light Snow,330,2013-01-12 22:53:00
5:53 PM,5.0,-2.9,70,30.19,10.0,NNW,18.4,-,0.00,,Overcast,330,2013-01-12 23:53:00
6:53 PM,5.0,-2.2,72,30.10,10.0,NNW,17.3,-,N/A,,Overcast,330,2013-01-13 00:53:00
7:53 PM,3.9,-4.0,70,30.22,10.0,NNW,18.4,-,N/A,,Overcast,340,2013-01-13 01:53:00
8:53 PM,3.0,-6.0,66,30.25,10.0,NNW,12.7,-,N/A,,Overcast,340,2013-01-13 02:53:00
9:53 PM,1.9,-6.0,69,30.27,10.0,NNW,6.9,-,N/A,,Clear,340,2013-01-13 03:53:00
10:53 PM,1.4,-5.8,72,30.17,10.0,NNW,10.4,-,N/A,,Mostly Cloudy,330,2013-01-13 04:53:00
11:53 PM,1.0,-7.1,69,30.27,10.0,North,6.9,-,N/A,,Mostly Cloudy,350,2013-01-13 05:53:00